Location: Bullfrog
(37.5121°N, 110.7330°W)
Time: 05:05:58
(UTC-07:00)

Hubble Space Telescope - Visible Passes

Search period start: 21 January 2026 00:00
Search period end: 31 January 2026 00:00
Orbit: 479 x 481 km, 28.5° (Epoch: 20 January)

Date Brightness Start Highest point End Pass type
(mag) Time Alt. Az. Time Alt. Az. Time Alt. Az.
23 Jan 3.1 19:48:35 10° SSW 19:49:44 15° SSW 19:49:44 15° SSW visible
24 Jan 2.5 19:18:40 10° SW 19:21:13 17° S 19:21:35 17° SSE visible
25 Jan 2.7 18:48:43 10° SW 18:51:17 17° S 18:53:23 12° SE visible
26 Jan 2.7 18:18:45 10° SW 18:21:19 17° S 18:23:53 10° SE visible
26 Jan 3.0 19:57:47 10° SW 19:59:17 17° SSW 19:59:17 17° SSW visible
27 Jan 2.5 19:27:47 10° SW 19:30:35 20° S 19:31:04 19° S visible
28 Jan 2.6 18:57:45 10° SW 19:00:33 20° S 19:02:51 12° SE visible
29 Jan 2.7 18:27:41 10° SW 18:30:29 20° S 18:33:17 10° SE visible
29 Jan 3.5 20:08:12 10° SW 20:08:47 11° SSW 20:08:47 11° SSW visible
30 Jan 3.2 19:38:07 10° SW 19:39:35 12° SSW 19:40:38 11° S visible
